Hourly Data Report for October 03, 2017

All times are specified in Local Standard Time (LST). Add 1 hour to adjust for Daylight Saving Time where and when it is observed.

HALL BEACH A
NUNAVUT

68°46'33.000" N
81°14'33.000" W
9.10 m
2402354
71293
YUX

Related Data

No related data is available for this station

Download Data

Hourly Data (October 2017)
Hourly Data Report for October 3, 2017
Temp Definition
°C
Dew Point Temp Definition
°C
Rel Hum Definition
%
Wind Dir Definition
10's deg

Wind Spd Definition
km/h
Visibility Definition
km
Stn Press Definition
kPa
Hmdx Definition


Wind Chill Definition


Weather Definition


TIME
00:00 Legend Double Dagger -3.7 -5.0 91 28 28 16.1 99.13   -11 LegendNANA
01:00 Legend Double Dagger -3.6 -5.0 90 28 22 16.1 99.08   -10 LegendNANA
02:00 Legend Double Dagger -4.0 -5.4 90 28 22 16.1 99.02   -11 Snow
03:00 Legend Double Dagger -6.0 -7.5 89 28 24 16.1 98.99   -13 LegendNANA
04:00 Legend Double Dagger -6.0 -7.4 90 28 17 16.1 98.95   -12 LegendNANA
05:00 Legend Double Dagger -5.8 -7.6 87 30 22 16.1 98.93   -13 LegendNANA
06:00 Legend Double Dagger -8.5 -10.1 88 28 21 16.1 98.93   -16 LegendNANA
07:00 Legend Double Dagger -9.8 -10.9 92 27 17 16.1 98.87   -17 LegendNANA
08:00 Legend Double Dagger -6.0 -7.5 89 26 21 16.1 98.84   -13 LegendNANA
09:00 Legend Double Dagger -6.0 -7.7 88 27 13 16.1 98.83   -11 LegendNANA
10:00 Legend Double Dagger -3.7 -6.0 84 29 24 16.1 98.76   -11 LegendNANA
11:00 Legend Double Dagger -4.4 -6.4 86 27 18 16.1 98.72   -10 LegendNANA
12:00 Legend Double Dagger -3.4 -5.7 84 27 22 16.1 98.67   -10 LegendNANA
13:00 Legend Double Dagger -4.0 -6.0 86 27 21 16.1 98.61   -10 LegendNANA
14:00 Legend Double Dagger -4.8 -7.0 85 24 18 16.1 98.56   -11 LegendNANA
15:00 Legend Double Dagger -5.6 -7.6 86 21 11 16.1 98.52   -10 LegendNANA
16:00 Legend Double Dagger -6.0 -8.0 86 22 18 16.1 98.44   -12 LegendNANA
17:00 Legend Double Dagger -4.7 -6.1 90 21 17 6.4 98.37   -11 Snow
18:00 Legend Double Dagger -7.1 -8.5 90 24 18 16.1 98.31   -14 LegendNANA
19:00 Legend Double Dagger -4.5 -5.8 91 25 18 16.1 98.26   -11 Snow
20:00 Legend Double Dagger -3.4 -4.5 92 27 28 16.1 98.22   -11 Snow
21:00 Legend Double Dagger -4.3 -6.0 88 27 34 16.1 98.20   -13 LegendNANA
22:00 Legend Double Dagger -4.9 -7.0 85 26 30 16.1 98.19   -13 LegendNANA
23:00 Legend Double Dagger -7.4 -9.2 87 23 28 16.1 98.14   -16 LegendNANA

Notes on Data Quality.

Legend

  • E = Estimated
  • M = Missing
  • NA = Not Available
  • ‡ = Partner data that is not subject to review by the National Climate Archives
Date modified: